Погода в Осиновке

Россия / Томская область     55˚57′17″N   83˚29′40″E
темп.,
°C
ветер,
м/с
пор.,
м/с
влажн.,
%
обл.,
%
осадки,
мм/ч
давл.,
гПа
погр.,
м
17 января, вс
вс1701:00−14˚ю498999 0.0 1020305
04:00−14˚ю4128696 0.0 1016293
07:00−12˚ю5148098 0.0 1013439
10:00−13˚ю51380100 0.0 1009353
13:00−10˚ююз61383100 0.0 1007560
16:00−9˚зюз71389100 0.0 1008669
19:00−9˚юз61491100 0.1 1012583
22:00−10˚юз61490100 0.0 1013457
18 января, пн
пн1801:00−11˚ююз6149297 0.1 1013371
04:00−10˚ююз71686100 0.0 1009534
07:00−8˚юз81593100 0.2 1007922
10:00−9˚юз51391100 0.3 1006734
13:00−8˚зюз6119099 0.4 10071147
16:00−10˚зюз61188100 0.1 1007936
19:00−13˚зюз61390100 0.2 1011631
22:00−17˚зюз51292100 0.0 1014450
19 января, вт
вт1901:00−19˚зюз41095100 0.1 1017286
04:00−23˚юз489796 0.0 1020154
07:00−25˚юз489662 0.0 1020160
10:00−24˚юз499633 0.0 1021224
13:00−20˚юз499467 0.0 1021353
16:00−18˚юз51092100 0.0 1020427
19:00−22˚зюз3596100 0.1 102185
22:00−25˚зюз339956 0.0 102230
20 января, ср
ср2001:00−27˚з339928 0.0 102324
04:00−30˚зсз23990 0.0 102521
07:00−31˚с23980 0.0 102719
10:00−33˚ссв22970 0.0 102919
13:00−29˚всв22950 0.0 1029130
16:00−29˚св239649 0.0 102984
19:00−30˚всв339758 0.0 102833
22:00−28˚всв3695100 0.0 1027141
21 января, чт
чт2101:00−27˚всв3694100 0.0 1024146
04:00−25˚всв4691100 0.0 1022194
07:00−23˚всв3696100 0.2 1020215
10:00−24˚св2398100 0.4 1019107
13:00−22˚юв019599 0.4 1019166
16:00−20˚ююз249599 0.1 1018294
19:00−21˚ююз249799 0.1 101790
22:00−19˚ю2397100 0.0 1014108